Volver al catálogo

STARLINK-37138

ActivoComunicacionesSSO
NORAD 68308·PAYLOAD·🇺🇸 United States

Lanzado Mar 20, 2026 desde Vandenberg Space Force Base

Loading…

Próximos Pases (próximas 24 horas)

TLE

ActualizadoSource: CelesTrak SupGP

Época: Sep 14, 2026, 22:43 UTC

1 68308C 26057Q   26257.94701389 -.00040795  00000+0 -12664-2 0  2572
2 68308  97.2856  23.4643 0001452  91.3900 334.5665 15.33460582    10

Sigue STARLINK-37138 en tiempo real con AllMySat

Download on the App Store